sat.trackr.live / text

‹ back to catalog

ONEWEB-0020

NORAD 45133 · 2020-008C

PAYLOAD ACTIVE UNKNOWN

§ Identity

Operator
Country
UK
Launch date
2020-02-06
Launch site
TYMSC
Launch vehicle
Mass (kg)
RCS (m²)

Purposes: comms

External: N2YO · Heavens-Above · Gunter

§ Orbital elements

Epoch: 2026-09-12T02:14:06.495936Z

Period
109.89 min
Inclination
87.8897°
Eccentricity
0.0001744
Mean motion
13.10374217 rev/d
Perigee alt
1,220.4 km
Apogee alt
1,223.0 km
Semi-major
7,599.8 km
B*
7.5728e-4
RAAN
18.9648°
Arg perigee
99.6540°
Mean anomaly
260.4785°
Rev number
31,972

§ Raw data

ONEWEB-00201 45133U 20008C   26255.09313074  .00000277  00000+0  75728-3 0  99902 45133  87.8897  18.9648 0001744  99.6540 260.4785 13.10374217319723

JSON: /api/v1/satellites/45133 · /tle

For live sub-satellite position, see the globe view (requires WebGL).

§ Visibility from observer

Set your observer location to see the next 7 days of passes ≥ 10°. The values pass through the URL so the page stays shareable.

No JS? Fill the form by hand. The geolocation button needs JavaScript.